Location: ????????
(55.5667°N, 37.5833°E)
Time: 08:05:28
(UTC+00:00)

Cosmos 2056 Rocket - Pass Details

Date: 14 April 2026
Orbit: 738 x 796 km, 74.0° (Epoch: 9 May)

Event Time Altitude Azimuth Distance (km) Brightness Sun altitude
Exits shadow 23:17:10 32° 256° (WSW) 1,331 4.4 -21.0°
Maximum altitude 23:19:11 47° 307° (NW) 1,046 4.2 -20.9°
Drops below altitude 10° 23:24:26 10° 22° (NNE) 2,380 7.2 -20.5°
Sets 23:26:57 0° 28° (NNE) 3,312 8.4 -20.3°
